User: anonymous   Login
Location: Newark
(51.3000°N, 178.2000°W)
Time: 04:33:31
(UTC+00:00)
Language:

LilacSat-2 - Orbit

View from above orbital plane
View from above orbital plane
View from above satellite
View from above satellite

Ground track
Ground track

The orbit data is extracted from the following two-line orbital elements,

1 40908U 15049K   21209.84820898  .00000671  00000-0  39940-4 0  9994
2 40908  97.5046 209.2779 0017289  59.6466  59.7072 15.14495572323497
Epoch (UTC): 28 July 2021 20:21:25
Eccentricity: 0.0017289
inclination: 97.5046°
perigee height: 510 km
apogee height: 534 km
right ascension of ascending node: 209.2779°
argument of perigee: 59.6466°
revolutions per day: 15.14495572
mean anomaly at epoch: 59.7072°
orbit number at epoch: 32349

The dashed part of the orbit path shows where the satellite is in the earth's shadow,  

DLR